Weather History for Pamplona, Spain

Change the Weather History Date:

Saturday, November 19, 2011

  Actual Average Record
Temperature  
Mean Temperature 55 °F -  
Max Temperature 60 °F 48 °F 60 °F (2003)
Min Temperature 50 °F 37 °F 30 °F (2007)
Degree Days  
Heating Degree Days 10    
Growing Degree Days 5 (Base 50)    
Moisture  
Dew Point 43 °F    
Average Humidity 64    
Maximum Humidity 82    
Minimum Humidity 51    
Precipitation  
Precipitation 0.00 in - - ()
Sea Level Pressure  
Sea Level Pressure 29.92 in    
Wind  
Wind Speed 9 mph ()    
Max Wind Speed 14 mph    
Max Gust Speed 26 mph    
Visibility 6.2 miles    
Events      
Averages and records for this station are not official NWS values.
T = Trace of Precipitation, MM = Missing Value Source: Averaged Metar Reports

Daily Weather History Graph

Daily Weather History Graph

Search for Another Location

Airport:

Trip Planner

Search our weather history database for the weather conditions in past years. The results will help you decide how hot, cold, wet, or windy it might be!

Date:

Astronomy

Nov. 19, 2011 Rise Set
Actual Time 8:02 AM CET 5:40 PM CET
Civil Twilight 7:32 AM CET 6:11 PM CET
Nautical Twilight 6:57 AM CET 6:45 PM CET
Astronomical Twilight 6:24 AM CET 7:19 PM CET
Moon 12:57 AM CET (11/19) 1:58 PM CET (11/19)
Length of Visible Light 10h 39m
Length of Day
9h 37m
Last Quarter, 41% of the Moon is Illuminated
Nov 19
Last Quarter
Nov 25
New
Dec 2
First Quarter
Dec 10
Full
Dec 18
Last Quarter

Hourly Weather History & Observations

Time (CET) Temp. Dew Point Humidity Pressure Visibility Wind Dir Wind Speed Gust Speed Precip Events Conditions
12:00 AM 53.6 °F 46.4 °F 77% 29.98 in 6.2 mi SE 12.7 mph - N/A   Scattered Clouds
5:30 AM 51.8 °F 44.6 °F 76% 29.92 in 6.2 mi SE 10.4 mph - N/A   Partly Cloudy
6:00 AM 51.8 °F 44.6 °F 76% 29.92 in 6.2 mi ESE 10.4 mph - N/A   Partly Cloudy
6:30 AM 51.8 °F 44.6 °F 76% 29.92 in 6.2 mi ESE 10.4 mph - N/A   Partly Cloudy
7:00 AM 50.0 °F 44.6 °F 82% 29.92 in 6.2 mi ESE 12.7 mph 26.5 mph N/A   Partly Cloudy
7:30 AM 51.8 °F 44.6 °F 76% 29.92 in 6.2 mi ESE 12.7 mph - N/A   Scattered Clouds
8:00 AM 50.0 °F 44.6 °F 82% 29.92 in 6.2 mi ESE 12.7 mph - N/A   Scattered Clouds
8:30 AM 51.8 °F 44.6 °F 76% 29.92 in 6.2 mi ESE 13.8 mph - N/A   Scattered Clouds
9:00 AM 51.8 °F 42.8 °F 71% 29.95 in 6.2 mi ESE 12.7 mph - N/A   Scattered Clouds
9:30 AM 53.6 °F 42.8 °F 67% 29.95 in 6.2 mi ESE 13.8 mph - N/A   Scattered Clouds
10:00 AM 53.6 °F 42.8 °F 67% 29.95 in 6.2 mi ESE 11.5 mph - N/A   Scattered Clouds
10:30 AM 55.4 °F 42.8 °F 63% 29.95 in 6.2 mi ESE 10.4 mph - N/A   Scattered Clouds
11:00 AM 55.4 °F 42.8 °F 63% 29.95 in 6.2 mi ESE 8.1 mph - N/A   Scattered Clouds
11:30 AM 55.4 °F 42.8 °F 63% 29.95 in 6.2 mi SE 9.2 mph - N/A   Scattered Clouds
12:00 PM 59.0 °F 42.8 °F 55% 29.95 in 6.2 mi SE 12.7 mph - N/A   Scattered Clouds
12:30 PM 59.0 °F 42.8 °F 55% 29.92 in 6.2 mi SE 11.5 mph - N/A   Scattered Clouds
1:00 PM 59.0 °F 42.8 °F 55% 29.92 in 6.2 mi SE 9.2 mph 21.9 mph N/A   Partly Cloudy
1:30 PM 59.0 °F 42.8 °F 55% 29.89 in 6.2 mi SE 11.5 mph - N/A   Scattered Clouds
2:00 PM 59.0 °F 42.8 °F 55% 29.89 in 6.2 mi SE 11.5 mph - N/A   Scattered Clouds
2:30 PM 60.8 °F 44.6 °F 55% 29.89 in 6.2 mi SE 10.4 mph - N/A   Scattered Clouds
3:00 PM 60.8 °F 44.6 °F 55% 29.89 in 6.2 mi SE 9.2 mph - N/A   Scattered Clouds
3:30 PM 60.8 °F 42.8 °F 52% 29.89 in 6.2 mi ESE 10.4 mph - N/A   Scattered Clouds
4:00 PM 59.0 °F 41.0 °F 51% 29.89 in 6.2 mi SE 8.1 mph - N/A   Scattered Clouds
4:30 PM 59.0 °F 41.0 °F 51% 29.89 in 6.2 mi ESE 8.1 mph - N/A   Scattered Clouds
5:00 PM 59.0 °F 41.0 °F 51% 29.89 in 6.2 mi South 6.9 mph - N/A   Scattered Clouds
5:30 PM 57.2 °F 42.8 °F 59% 29.89 in 6.2 mi ESE 6.9 mph - N/A   Scattered Clouds
6:00 PM 57.2 °F 41.0 °F 55% 29.89 in 6.2 mi ESE 8.1 mph - N/A   Mostly Cloudy
6:30 PM 57.2 °F 42.8 °F 59% 29.92 in 6.2 mi ESE 8.1 mph - N/A   Mostly Cloudy
7:00 PM 55.4 °F 42.8 °F 63% 29.92 in 6.2 mi ESE 3.5 mph - N/A   Mostly Cloudy
7:30 PM 53.6 °F 42.8 °F 67% 29.92 in 6.2 mi SSE 5.8 mph - N/A   Scattered Clouds
8:00 PM 55.4 °F 41.0 °F 58% 29.92 in 6.2 mi South 8.1 mph - N/A   Mostly Cloudy
8:30 PM 55.4 °F 41.0 °F 58% 29.92 in 6.2 mi South 6.9 mph - N/A   Mostly Cloudy
9:00 PM 55.4 °F 42.8 °F 63% 29.92 in 6.2 mi South 5.8 mph - N/A   Mostly Cloudy
9:30 PM 55.4 °F 42.8 °F 63% 29.95 in 6.2 mi Variable 1.2 mph - N/A   Mostly Cloudy
10:00 PM 53.6 °F 41.0 °F 62% 29.95 in 6.2 mi SSE 4.6 mph - N/A   Mostly Cloudy
10:30 PM 53.6 °F 42.8 °F 67% 29.95 in 6.2 mi NNW 1.2 mph - N/A   Mostly Cloudy
11:00 PM 55.4 °F 42.8 °F 63% 29.95 in 6.2 mi SSW 2.3 mph - N/A   Mostly Cloudy
11:30 PM 53.6 °F 44.6 °F 72% 29.95 in 6.2 mi East 4.6 mph - N/A   Mostly Cloudy